Location: Foligno
(42.9600°N, 12.7050°E)
Time: 14:00:49
(UTC+02:00)

ISS - Pass Details

Date: 21 July 2018
Orbit: 402 x 408 km, 51.6° (Epoch: 21 July)

Event Time Altitude Azimuth Distance (km) Brightness Sun altitude
Rises 21:16:00 0° 215° (SW) 2,303 0.0 -6.1°
Reaches altitude 10° 21:18:10 10° 206° (SSW) 1,450 -1.1 -6.5°
Maximum altitude 21:21:10 35° 139° (SE) 669 -3.2 -6.9°
Drops below altitude 10° 21:24:12 10° 71° (ENE) 1,461 -1.3 -7.3°
Sets 21:26:22 0° 63° (ENE) 2,326 -0.2 -7.7°
